Tracking 25195 objects as of 19-Jan-2022
HD Live streaming from Space Station
objects crossing your sky now

SL-16 R/B

Track SL-16 R/B now!
10-day predictions
SL-16 R/B is classified as:


NORAD ID: 25400
Int'l Code: 1998-043G
Perigee: 806.1 km
Apogee: 821.9 km
Inclination: 98.7 °
Period: 101.0 minutes
Semi major axis: 7184 km
RCS: 12.0301 m2 (large)
Launch date: July 10, 1998
Source: Commonwealth of Independent States (former USSR) (CIS)
Launch site: TYURATAM MISSILE AND SPACE COMPLEX (TTMTR)

Note: This is a ROCKET BODY
aabbcc
Your satellite tracking list
Your tracking list is empty




NASA's NSSDC Master Catalog

Two Line Element Set (TLE):
1 25400U 98043G   22018.57006857  .00000001  00000-0  18947-4 0  9990
2 25400  98.6611 316.4373 0011021  85.6473 274.5965 14.25493147223666
Source of the keplerian elements: AFSPC